Wind_Speed
12 12 12 10 9 8 7 6 6 6 6 5 5 5 5 5 4 3 3 3 4 4 4 4 4 4 5 4 5 6 7 6 6 7 8 9 9 9 9 9 9 9
14 13 12 11 10 9 8 7 7 6 5 5 4 4 4 4 4 3 2 1 1 2 2 3 3 3 4 4 4 5 6 6 6 7 7 8 8 8 7 7 8 8
16 14 13 13 12 10 9 8 7 6 6 5 5 4 4 3 3 3 2 1 1 1 1 2 2 2 2 3 3 4 5 5 5 6 6 7 7 7 6 5 6 6
18 17 16 15 13 11 9 8 7 7 7 6 5 5 4 4 4 3 2 2 2 2 1 1 1 1 2 2 3 3 4 4 5 5 6 6 6 6 6 5 4 5
20 19 18 16 15 13 11 9 9 8 8 7 6 6 6 5 5 4 3 3 3 3 3 1 0 1 1 2 3 3 4 4 4 5 5 6 6 6 6 5 4 4
20 20 19 18 16 14 13 11 10 9 9 8 8 7 7 6 6 5 4 3 3 4 3 3 1 1 2 3 4 4 4 4 4 5 6 6 7 6 6 6 5 5
20 20 19 19 18 16 15 13 12 10 10 9 8 8 8 8 7 6 4 3 3 3 4 3 2 1 3 4 5 5 4 4 4 5 6 6 7 7 7 6 6 6
20 20 19 19 18 18 17 15 14 13 11 10 10 9 9 9 8 7 5 4 3 3 4 4 3 2 4 5 5 5 5 4 4 4 6 6 6 7 7 7 7 6
21 20 19 19 18 18 18 17 16 15 13 12 11 11 10 10 9 9 7 5 3 3 4 4 4 4 5 6 6 6 5 5 4 4 5 6 6 6 7 7 7 7
20 20 20 19 19 19 19 19 18 17 15 14 13 12 11 11 10 10 9 7 5 4 4 5 5 6 7 7 7 7 6 6 5 5 5 5 5 5 6 7 7 7
18 19 19 19 19 19 19 19 19 18 17 16 15 14 13 12 11 11 10 9 7 6 5 5 7 8 9 9 9 8 8 7 7 6 6 6 6 6 5 6 6 6
17 18 19 19 19 19 19 19 19 19 19 18 16 16 15 14 13 12 12 11 9 7 6 6 7 9 10 11 10 10 10 9 8 8 7 7 6 6 6 6 6 6
17 18 18 19 19 19 19 19 19 19 19 19 18 18 17 16 15 14 14 14 12 10 8 7 8 10 11 12 12 12 11 11 10 9 9 8 7 7 6 6 5 6
17 18 18 18 19 18 18 18 18 18 19 19 19 18 18 17 17 16 16 15 14 12 10 9 8 10 12 13 13 13 13 12 11 10 10 9 9 7 6 6 5 5
15 17 18 18 18 17 17 17 18 18 19 19 18 18 18 18 18 18 17 16 15 14 13 11 10 11 13 15 15 15 15 14 13 12 12 11 10 9 8 7 6 5
14 15 16 18 18 18 18 18 18 18 19 18 18 18 19 19 18 18 17 17 17 16 15 13 13 13 14 16 17 17 17 16 14 13 13 13 12 12 10 8 7 7
15 14 14 16 18 18 18 18 18 18 19 18 19 19 19 19 19 18 18 18 17 17 16 16 15 15 16 17 19 19 19 18 16 15 14 14 13 13 12 11 9 8
17 15 14 14 16 17 18 19 19 18 18 19 19 19 19 19 19 19 19 19 18 17 17 17 18 18 17 18 19 21 21 20 19 18 16 15 15 15 14 13 11 10
20 18 16 14 14 16 18 19 20 19 18 19 19 20 20 19 19 20 20 20 19 18 18 18 19 20 18 18 19 21 22 22 22 20 19 18 17 16 16 15 13 12
23 21 19 17 16 15 16 17 19 20 20 20 20 20 19 19 20 20 20 20 20 20 20 20 20 21 20 19 19 20 22 24 24 23 22 20 19 18 18 17 16 14
26 24 22 20 19 17 16 15 16 19 20 21 21 20 20 20 20 21 21 21 21 21 22 21 21 21 22 21 21 21 22 24 25 26 25 22 21 20 19 19 17 16
27 27 26 24 22 20 17 15 15 16 18 20 21 21 21 21 20 20 21 21 22 22 22 21 21 22 22 22 22 23 23 24 25 27 27 25 23 22 21 20 19 17
28 29 29 27 25 23 20 17 16 16 17 19 20 20 21 21 20 21 21 22 23 22 21 22 22 23 23 23 23 24 24 24 25 27 28 28 27 25 24 22 19 18
30 31 31 30 28 25 23 21 19 19 18 18 19 19 20 21 22 22 22 22 22 22 22 22 23 24 25 24 24 25 25 25 25 27 29 30 30 29 26 23 20 19
32 33 31 30 29 27 26 24 22 22 21 20 19 19 20 21 22 22 22 22 22 22 23 23 23 24 25 25 26 26 25 26 26 26 27 29 32 32 29 26 23 22
34 34 32 30 29 29 29 28 26 25 24 22 21 19 19 20 20 21 21 22 23 23 23 23 24 24 24 25 26 27 26 26 27 27 27 28 31 33 32 30 27 25
Wind_Direction
178 176 178 182 180 176 176 171 162 159 156 156 159 160 158 154 151 147 136 120 112 108 103 96 96 100 106 113 115 116 120 128 133 133 134 134 133 131 127 119 110 105
186 182 181 184 186 185 185 181 175 171 166 167 175 177 170 162 161 164 171 152 100 95 93 86 76 82 94 101 107 115 123 129 133 132 135 137 136 136 133 126 120 116
190 187 185 186 190 192 190 186 184 181 179 183 190 195 192 184 181 180 196 240 282 327 62 84 77 73 86 97 105 118 125 131 134 135 139 143 144 146 144 141 135 127
194 192 191 190 191 193 193 191 189 187 190 196 199 206 212 212 207 198 203 237 268 284 307 45 84 90 99 109 111 121 127 132 139 142 148 152 155 157 153 156 156 142
200 197 195 194 192 191 192 194 194 191 195 202 207 214 222 226 227 219 213 227 252 272 285 301 46 100 115 122 123 128 130 134 142 144 149 157 161 163 160 164 172 159
207 203 200 198 197 193 193 196 197 194 195 202 210 220 228 233 237 236 231 230 245 265 278 285 286 117 131 138 136 137 136 136 140 139 141 151 157 161 163 165 169 163
212 209 205 203 201 199 199 199 199 199 199 202 208 218 229 239 245 248 246 245 249 260 272 281 274 170 155 152 148 149 145 138 138 135 134 140 145 148 150 152 152 152
211 211 209 207 205 205 206 204 203 204 203 204 209 215 224 235 246 252 253 252 253 256 262 269 262 205 174 165 160 159 154 146 140 139 136 135 137 137 134 135 137 141
208 208 208 208 207 208 209 209 209 208 206 208 213 216 220 228 240 248 251 250 247 246 247 250 246 216 190 179 173 169 163 157 153 147 144 142 140 137 133 132 133 137
208 207 206 206 206 208 210 212 213 212 210 211 213 216 220 224 232 242 246 246 242 239 237 238 235 219 201 189 183 181 175 169 167 163 158 153 150 147 142 139 138 139
205 205 205 204 205 208 209 212 214 214 214 213 212 215 221 222 226 235 242 242 240 237 236 235 233 223 210 198 190 189 186 180 178 177 174 169 163 161 158 153 149 147
201 201 201 202 204 207 209 211 213 215 216 215 212 213 218 221 223 228 235 238 236 233 232 233 232 224 216 207 197 193 192 190 187 186 186 184 178 175 172 168 165 162
200 199 199 200 202 205 207 209 212 215 216 216 214 213 214 218 221 224 229 233 231 227 224 224 227 224 219 213 205 199 197 197 195 193 193 193 190 187 185 182 179 179
204 201 199 200 201 203 205 206 209 212 214 216 215 213 212 214 218 221 225 228 228 226 221 217 218 221 219 215 211 207 203 202 202 200 199 200 201 201 198 198 199 199
207 205 203 201 200 200 202 204 206 208 211 214 214 213 213 213 216 221 224 226 226 224 221 216 213 213 215 215 214 212 210 208 206 204 204 204 207 210 211 212 215 217
208 207 206 204 202 201 201 203 205 208 211 212 212 213 214 214 216 220 223 224 225 223 220 216 215 212 211 212 213 213 214 213 211 210 209 208 209 213 217 220 224 227
207 206 207 206 205 204 203 202 205 208 211 212 213 215 216 217 217 218 222 224 225 224 219 216 217 217 213 211 211 212 214 215 216 216 215 214 214 216 218 222 227 233
207 207 207 208 208 208 206 205 205 207 211 213 215 217 218 219 219 218 220 224 226 225 221 216 218 221 219 215 211 211 212 213 216 218 219 220 221 222 222 223 226 233
211 210 209 210 212 212 211 209 207 208 210 213 214 217 219 220 222 222 221 223 226 227 224 219 219 222 223 221 217 213 211 212 215 217 219 221 224 226 226 225 225 230
215 214 212 212 214 216 216 213 210 209 212 214 215 217 218 219 223 226 226 224 224 226 226 224 222 223 224 224 223 219 215 213 214 216 219 221 223 227 228 228 227 228
217 217 215 215 216 218 219 216 213 212 213 216 218 217 216 217 220 225 229 228 225 225 228 228 227 227 226 225 225 225 222 218 215 216 218 220 222 225 227 229 230 230
218 217 217 218 218 218 219 218 217 216 215 217 219 219 218 218 219 222 228 231 230 228 228 230 231 232 231 228 226 226 226 224 220 218 219 220 223 225 226 227 229 231
219 218 216 217 219 219 219 218 217 218 218 218 219 222 222 220 218 219 223 229 233 232 229 229 232 234 235 233 231 229 229 227 224 221 220 221 224 226 227 228 230 232
219 219 217 216 218 218 218 218 218 218 220 221 219 220 223 223 221 219 220 225 232 235 234 231 231 234 235 235 234 233 232 230 228 225 222 221 223 226 227 227 229 235
221 221 220 217 216 218 218 219 219 219 221 222 221 220 223 226 226 223 221 222 226 231 235 236 235 236 237 237 237 237 235 233 232 230 227 223 224 225 226 226 228 234
224 222 222 218 216 218 219 220 220 221 222 223 223 223 225 228 230 229 226 224 223 225 230 235 238 240 241 241 240 240 239 237 235 233 230 227 226 226 226 226 227 232
Height
5939 5940 5942 5943 5944 5946 5947 5948 5950 5951 5952 5953 5953 5954 5955 5955 5955 5956 5956 5956 5957 5958 5958 5958 5959 5959 5960 5960 5960 5960 5960 5961 5962 5962 5962 5962 5962 5962 5963 5963 5963 5964
5938 5939 5941 5942 5943 5945 5946 5947 5949 5950 5951 5952 5953 5953 5954 5955 5955 5956 5956 5956 5957 5958 5958 5959 5959 5959 5960 5960 5960 5960 5960 5961 5961 5961 5962 5962 5962 5962 5962 5963 5963 5964
5937 5938 5940 5941 5942 5944 5945 5947 5948 5949 5950 5951 5952 5953 5954 5954 5955 5956 5956 5956 5956 5957 5958 5958 5959 5959 5960 5960 5960 5960 5960 5961 5961 5961 5961 5962 5962 5962 5962 5963 5963 5963
5936 5937 5939 5940 5942 5943 5944 5946 5947 5948 5949 5950 5951 5952 5953 5954 5954 5955 5956 5956 5956 5957 5957 5958 5959 5959 5959 5960 5960 5960 5960 5960 5960 5961 5961 5961 5962 5962 5962 5963 5963 5963
5935 5936 5937 5939 5941 5942 5943 5945 5946 5947 5948 5949 5950 5951 5952 5953 5954 5954 5955 5956 5956 5956 5957 5957 5958 5959 5959 5959 5960 5960 5960 5960 5960 5960 5961 5961 5961 5962 5962 5962 5963 5963
5933 5935 5936 5938 5939 5941 5942 5943 5944 5946 5947 5948 5949 5950 5951 5952 5952 5953 5954 5955 5956 5956 5956 5957 5958 5958 5959 5959 5959 5960 5960 5960 5960 5960 5960 5961 5961 5961 5962 5962 5963 5963
5932 5933 5935 5936 5938 5939 5941 5942 5943 5944 5946 5947 5948 5949 5950 5950 5951 5952 5953 5954 5955 5955 5956 5956 5957 5958 5958 5959 5959 5959 5960 5960 5960 5960 5961 5961 5961 5961 5962 5962 5963 5963
5931 5932 5933 5935 5936 5938 5939 5940 5942 5943 5944 5945 5947 5948 5949 5949 5950 5951 5952 5953 5954 5955 5955 5956 5956 5957 5958 5959 5959 5959 5960 5960 5960 5960 5961 5961 5962 5962 5962 5962 5963 5963
5929 5930 5932 5933 5935 5936 5937 5938 5940 5941 5943 5944 5945 5946 5947 5948 5949 5950 5951 5952 5953 5954 5954 5955 5956 5956 5957 5958 5959 5959 5960 5960 5960 5961 5961 5961 5962 5962 5962 5963 5963 5963
5928 5929 5930 5932 5933 5934 5935 5937 5938 5939 5941 5942 5943 5944 5946 5947 5948 5949 5950 5951 5952 5953 5953 5954 5955 5956 5956 5957 5958 5959 5960 5960 5960 5961 5961 5961 5962 5962 5962 5963 5963 5963
5926 5927 5929 5930 5931 5932 5934 5935 5936 5938 5939 5940 5942 5943 5944 5945 5947 5947 5948 5949 5950 5951 5952 5953 5954 5955 5956 5957 5958 5959 5960 5960 5960 5961 5961 5961 5961 5962 5962 5962 5963 5963
5924 5925 5927 5928 5929 5930 5932 5933 5934 5936 5937 5938 5940 5941 5942 5943 5945 5946 5946 5947 5949 5950 5951 5952 5953 5954 5955 5956 5957 5958 5959 5960 5960 5961 5961 5961 5961 5961 5962 5962 5962 5963
5922 5923 5924 5926 5927 5928 5930 5931 5933 5934 5935 5937 5938 5939 5940 5941 5942 5944 5944 5945 5947 5948 5949 5951 5952 5953 5954 5955 5956 5957 5958 5959 5960 5960 5960 5961 5961 5961 5961 5961 5962 5962
5920 5921 5923 5924 5925 5926 5928 5929 5931 5932 5933 5935 5936 5937 5938 5939 5940 5941 5942 5943 5945 5946 5948 5949 5950 5951 5952 5954 5955 5956 5957 5958 5959 5959 5960 5960 5960 5960 5961 5961 5961 5962
5919 5920 5921 5922 5923 5924 5926 5927 5929 5930 5931 5933 5934 5935 5936 5937 5938 5939 5940 5941 5943 5944 5945 5947 5948 5949 5951 5952 5953 5954 5955 5957 5958 5958 5959 5959 5959 5960 5960 5960 5960 5961
5917 5918 5919 5920 5921 5922 5923 5925 5926 5928 5929 5931 5932 5933 5934 5935 5936 5937 5938 5939 5941 5942 5943 5945 5946 5947 5948 5950 5951 5952 5954 5955 5956 5957 5958 5958 5958 5959 5959 5959 5959 5960
5915 5916 5917 5918 5919 5920 5921 5922 5924 5925 5927 5929 5930 5931 5931 5932 5934 5935 5936 5937 5938 5940 5941 5943 5944 5944 5946 5947 5948 5950 5951 5953 5954 5955 5956 5956 5957 5957 5958 5958 5958 5958
5912 5914 5915 5917 5918 5918 5919 5920 5921 5923 5924 5926 5927 5929 5929 5930 5931 5933 5934 5935 5936 5938 5939 5941 5941 5942 5943 5945 5946 5947 5949 5950 5952 5953 5954 5954 5955 5956 5956 5956 5957 5957
5911 5912 5913 5915 5916 5917 5917 5918 5919 5921 5922 5923 5925 5926 5927 5928 5929 5930 5931 5933 5934 5935 5937 5938 5939 5940 5941 5942 5943 5945 5946 5947 5949 5950 5951 5952 5953 5954 5954 5955 5955 5956
5909 5910 5911 5912 5913 5915 5916 5917 5918 5918 5919 5920 5922 5923 5925 5926 5927 5928 5929 5930 5932 5933 5934 5935 5937 5938 5939 5940 5941 5942 5943 5945 5946 5947 5949 5950 5951 5952 5952 5953 5953 5954
5907 5908 5909 5910 5911 5912 5914 5915 5916 5916 5917 5918 5919 5921 5923 5924 5924 5925 5926 5928 5929 5931 5931 5933 5934 5935 5936 5938 5939 5940 5941 5942 5943 5945 5946 5948 5949 5950 5950 5951 5951 5952
5905 5905 5906 5907 5908 5909 5911 5913 5914 5914 5915 5916 5916 5918 5919 5921 5923 5923 5924 5925 5926 5928 5929 5930 5931 5932 5933 5935 5936 5937 5938 5939 5941 5942 5944 5945 5947 5947 5948 5949 5949 5950
5901 5902 5903 5904 5905 5907 5908 5910 5911 5912 5913 5913 5914 5915 5916 5918 5920 5921 5922 5922 5923 5925 5927 5928 5929 5929 5930 5932 5933 5934 5935 5936 5938 5939 5941 5942 5944 5945 5945 5946 5947 5948
5897 5898 5899 5900 5902 5904 5905 5907 5908 5909 5910 5911 5912 5912 5913 5914 5916 5917 5919 5920 5921 5922 5923 5925 5925 5926 5927 5928 5929 5930 5932 5933 5934 5935 5937 5939 5940 5941 5943 5944 5945 5946
5893 5894 5895 5897 5898 5900 5902 5903 5905 5906 5907 5908 5909 5910 5910 5911 5912 5914 5916 5917 5918 5919 5920 5921 5922 5923 5924 5925 5926 5927 5928 5930 5931 5932 5934 5936 5937 5938 5940 5941 5942 5943
5890 5891 5892 5893 5895 5897 5898 5900 5901 5902 5904 5906 5907 5908 5908 5909 5909 5911 5912 5914 5915 5916 5917 5918 5919 5920 5921 5922 5922 5923 5925 5926 5927 5929 5931 5933 5934 5935 5936 5938 5939 5940